This is the latest recevied weather packets stored in our database for station/object N6RDS-8. If no packets are shown the sender has not sent any weather packets the latest 10 day(s).
| Time | Temp. | Humidity | Pressure | Rain* | Wind** | Luminosity | Snow |
|---|---|---|---|---|---|---|---|
| 1777918319 | 25.56° C | 29% | 1018.5 hPa | 0 mm | - | 564 W/m² | - |
| 1777918018 | 26.11° C | 28% | 1018.4 hPa | 0 mm | - | 432 W/m² | - |
| 1777917716 | 25.56° C | 28% | 1018.5 hPa | 0 mm | - | 601 W/m² | - |
| 1777917413 | 25.56° C | 28% | 1018.8 hPa | 0 mm | - | 443 W/m² | - |
| 1777917109 | 25° C | 28% | 1018.6 hPa | 0 mm | - | 563 W/m² | - |
| 1777916807 | 24.44° C | 30% | 1018.6 hPa | 0 mm | - | 428 W/m² | - |
| 1777916504 | 23.89° C | 29% | 1018.5 hPa | 0 mm | - | 271 W/m² | - |
| 1777916201 | 23.89° C | 30% | 1018.7 hPa | 0 mm | - | 274 W/m² | - |
| 1777915898 | 24.44° C | 29% | 1018.8 hPa | 0 mm | - | 436 W/m² | - |
| 1777915595 | 24.44° C | 31% | 1018.9 hPa | 0 mm | - | 440 W/m² | - |
| 1777915292 | 23.89° C | 31% | 1018.8 hPa | 0 mm | - | 493 W/m² | - |
| 1777914988 | 23.89° C | 30% | 1018.7 hPa | 0 mm | - | 527 W/m² | - |
| 1777914685 | 23.89° C | 30% | 1018.8 hPa | 0 mm | - | 380 W/m² | - |
| 1777914381 | 23.89° C | 31% | 1018.9 hPa | 0 mm | - | 359 W/m² | - |
| 1777914079 | 23.89° C | 31% | 1019 hPa | 0 mm | - | 418 W/m² | - |
| 1777913774 | 23.33° C | 32% | 1019.4 hPa | 0 mm | - | 483 W/m² | - |
| 1777913471 | 23.89° C | 32% | 1019 hPa | 0 mm | - | 462 W/m² | - |
| 1777913167 | 23.33° C | 33% | 1018.9 hPa | 0 mm | - | 586 W/m² | - |
| 1777912864 | 22.78° C | 34% | 1019.3 hPa | 0 mm | - | 460 W/m² | - |
| 1777912560 | 22.78° C | 34% | 1019 hPa | 0 mm | - | 323 W/m² | - |
| 1777912256 | 23.33° C | 34% | 1019 hPa | 0 mm | - | 380 W/m² | - |
| 1777911953 | 22.78° C | 34% | 1019.1 hPa | 0 mm | - | 424 W/m² | - |
| 1777911649 | 23.33° C | 34% | 1019 hPa | 0 mm | - | 378 W/m² | - |
| 1777911345 | 22.78° C | 35% | 1018.9 hPa | 0 mm | - | 487 W/m² | - |
| 1777911043 | 22.78° C | 35% | 1018.8 hPa | 0 mm | - | 460 W/m² | - |
* Rain latest hour (hover to see other rain measurements)
** Current wind speed in m/s (hover to see current wind gust speed)